Time,TemperatureF,DewpointF,PressureIn,WindDirection,WindDirectionDegrees,WindSpeedMPH,WindSpeedGustMPH,Humidity,HourlyPrecipIn,Conditions,Clouds,dailyrainin,SoftwareType,DateUTC
2013-05-06 00:01:00,52.3,50.0,29.74,West,267,0.0,2.0,92,0.00,,,0.17,VWS V14.01,2013-05-06 04:01:00,
2013-05-06 00:02:00,52.3,50.0,29.74,West,267,0.0,2.0,92,0.00,,,0.00,VWS V14.01,2013-05-06 04:02:00,
2013-05-06 00:06:00,52.5,50.2,29.74,NNW,346,1.0,2.0,92,0.00,,,0.00,VWS V14.01,2013-05-06 04:06:00,
2013-05-06 00:11:00,52.5,50.0,29.74,NNW,334,0.0,2.0,91,0.00,,,0.00,VWS V14.01,2013-05-06 04:11:00,
2013-05-06 00:16:00,52.5,50.0,29.74,East,80,0.0,2.0,91,0.00,,,0.00,VWS V14.01,2013-05-06 04:16:00,
2013-05-06 00:21:00,52.5,50.0,29.74,WNW,293,0.0,2.0,91,0.00,,,0.00,VWS V14.01,2013-05-06 04:21:00,
2013-05-06 00:26:00,52.5,50.0,29.74,WNW,287,0.0,2.0,91,0.00,,,0.00,VWS V14.01,2013-05-06 04:26:00,
2013-05-06 00:31:00,52.5,50.0,29.74,WNW,292,0.0,2.0,91,0.00,,,0.00,VWS V14.01,2013-05-06 04:31:00,
2013-05-06 00:36:00,52.5,50.2,29.74,WNW,293,2.0,2.0,92,0.00,,,0.00,VWS V14.01,2013-05-06 04:36:00,
2013-05-06 00:41:00,52.5,50.0,29.74,WNW,293,0.0,2.0,91,0.00,,,0.00,VWS V14.01,2013-05-06 04:41:00,
2013-05-06 00:46:00,52.6,50.0,29.74,WNW,294,2.0,2.0,91,0.00,,,0.00,VWS V14.01,2013-05-06 04:46:00,
2013-05-06 00:51:00,52.6,50.3,29.74,WNW,294,0.0,2.0,92,0.00,,,0.00,VWS V14.01,2013-05-06 04:51:00,
2013-05-06 00:56:00,52.6,50.3,29.74,West,277,1.0,2.0,92,0.01,,,0.01,VWS V14.01,2013-05-06 04:56:00,
2013-05-06 01:01:00,52.8,50.5,29.74,West,277,1.0,2.0,92,0.02,,,0.02,VWS V14.01,2013-05-06 05:01:00,
2013-05-06 01:06:00,52.9,50.6,29.74,West,277,2.0,2.0,92,0.04,,,0.04,VWS V14.01,2013-05-06 05:06:00,
2013-05-06 01:11:00,52.9,50.6,29.74,West,279,1.0,2.0,92,0.05,,,0.05,VWS V14.01,2013-05-06 05:11:00,
2013-05-06 01:16:00,52.9,50.9,29.74,West,260,0.0,2.0,93,0.05,,,0.05,VWS V14.01,2013-05-06 05:16:00,
2013-05-06 01:22:00,52.8,50.8,29.74,West,263,0.0,2.0,93,0.05,,,0.05,VWS V14.01,2013-05-06 05:22:00,
2013-05-06 01:27:00,52.8,51.1,29.74,West,263,0.0,2.0,94,0.06,,,0.06,VWS V14.01,2013-05-06 05:27:00,
2013-05-06 01:32:00,52.8,51.1,29.74,West,263,0.0,2.0,94,0.06,,,0.06,VWS V14.01,2013-05-06 05:32:00,
2013-05-06 01:37:00,52.8,51.1,29.74,West,263,0.0,2.0,94,0.07,,,0.07,VWS V14.01,2013-05-06 05:37:00,
2013-05-06 01:42:00,52.8,51.1,29.74,West,263,0.0,2.0,94,0.07,,,0.07,VWS V14.01,2013-05-06 05:42:00,
2013-05-06 01:47:00,52.8,51.1,29.73,West,263,0.0,2.0,94,0.08,,,0.08,VWS V14.01,2013-05-06 05:47:00,
2013-05-06 01:52:00,52.8,51.1,29.73,West,263,1.0,2.0,94,0.08,,,0.08,VWS V14.01,2013-05-06 05:52:00,
2013-05-06 01:57:00,52.8,51.1,29.73,WNW,293,0.0,2.0,94,0.08,,,0.09,VWS V14.01,2013-05-06 05:57:00,
2013-05-06 02:02:00,52.8,51.4,29.72,WNW,293,1.0,2.0,95,0.08,,,0.10,VWS V14.01,2013-05-06 06:02:00,
2013-05-06 02:07:00,52.6,51.2,29.72,WNW,293,0.0,2.0,95,0.07,,,0.11,VWS V14.01,2013-05-06 06:07:00,
2013-05-06 02:12:00,52.6,51.2,29.72,WNW,293,0.0,2.0,95,0.06,,,0.11,VWS V14.01,2013-05-06 06:12:00,
2013-05-06 02:17:00,52.6,51.2,29.72,WNW,293,0.0,2.0,95,0.07,,,0.12,VWS V14.01,2013-05-06 06:17:00,
2013-05-06 02:22:00,52.6,51.2,29.72,WSW,253,2.0,2.0,95,0.08,,,0.13,VWS V14.01,2013-05-06 06:22:00,
2013-05-06 02:27:00,52.8,51.1,29.72,West,267,4.0,4.0,94,0.08,,,0.14,VWS V14.01,2013-05-06 06:27:00,
2013-05-06 02:32:00,52.8,51.1,29.72,NNW,344,0.0,2.0,94,0.10,,,0.16,VWS V14.01,2013-05-06 06:32:00,
2013-05-06 02:37:00,52.8,51.1,29.72,West,279,1.0,2.0,94,0.11,,,0.18,VWS V14.01,2013-05-06 06:37:00,
2013-05-06 02:42:00,52.8,51.1,29.72,West,279,1.0,2.0,94,0.12,,,0.19,VWS V14.01,2013-05-06 06:42:00,
2013-05-06 02:47:00,52.8,51.1,29.72,West,279,1.0,2.0,94,0.12,,,0.20,VWS V14.01,2013-05-06 06:47:00,
2013-05-06 02:52:00,52.8,51.1,29.72,West,279,0.0,2.0,94,0.13,,,0.21,VWS V14.01,2013-05-06 06:52:00,
2013-05-06 02:57:00,52.8,51.4,29.72,West,279,2.0,2.0,95,0.14,,,0.23,VWS V14.01,2013-05-06 06:57:00,
2013-05-06 03:02:00,52.8,51.4,29.72,West,274,1.0,2.0,95,0.14,,,0.24,VWS V14.01,2013-05-06 07:02:00,
2013-05-06 03:07:00,52.6,51.2,29.72,West,271,4.0,4.0,95,0.14,,,0.25,VWS V14.01,2013-05-06 07:07:00,
2013-05-06 03:13:00,52.6,51.2,29.72,West,271,0.0,2.0,95,0.15,,,0.26,VWS V14.01,2013-05-06 07:13:00,
2013-05-06 03:18:00,52.6,51.2,29.72,West,271,1.0,2.0,95,0.15,,,0.27,VWS V14.01,2013-05-06 07:18:00,
2013-05-06 03:23:00,52.6,51.2,29.72,West,270,1.0,2.0,95,0.16,,,0.28,VWS V14.01,2013-05-06 07:23:00,
2013-05-06 03:28:00,52.5,51.1,29.72,West,271,0.0,2.0,95,0.14,,,0.28,VWS V14.01,2013-05-06 07:28:00,
2013-05-06 03:33:00,52.6,51.2,29.73,West,271,0.0,2.0,95,0.13,,,0.29,VWS V14.01,2013-05-06 07:33:00,
2013-05-06 03:38:00,52.6,51.5,29.73,West,271,0.0,2.0,96,0.13,,,0.30,VWS V14.01,2013-05-06 07:38:00,
2013-05-06 03:43:00,52.6,51.5,29.73,West,271,0.0,2.0,96,0.13,,,0.31,VWS V14.01,2013-05-06 07:43:00,
2013-05-06 03:48:00,52.6,51.5,29.73,West,270,0.0,2.0,96,0.12,,,0.32,VWS V14.01,2013-05-06 07:48:00,
2013-05-06 03:53:00,52.6,51.5,29.73,West,271,0.0,2.0,96,0.12,,,0.33,VWS V14.01,2013-05-06 07:53:00,
2013-05-06 03:58:00,52.6,51.2,29.73,West,271,0.0,2.0,95,0.11,,,0.34,VWS V14.01,2013-05-06 07:58:00,
2013-05-06 04:03:00,52.8,51.7,29.72,West,271,0.0,2.0,96,0.10,,,0.34,VWS V14.01,2013-05-06 08:03:00,
2013-05-06 04:08:00,52.8,51.7,29.72,West,271,0.0,2.0,96,0.10,,,0.35,VWS V14.01,2013-05-06 08:08:00,
2013-05-06 04:13:00,52.8,51.7,29.72,SW,219,0.0,2.0,96,0.10,,,0.35,VWS V14.01,2013-05-06 08:13:00,
2013-05-06 04:18:00,52.6,51.5,29.71,SW,220,1.0,2.0,96,0.09,,,0.36,VWS V14.01,2013-05-06 08:18:00,
2013-05-06 04:23:00,52.6,51.5,29.71,NW,313,0.0,2.0,96,0.08,,,0.36,VWS V14.01,2013-05-06 08:23:00,
2013-05-06 04:28:00,52.6,51.5,29.71,WNW,300,0.0,2.0,96,0.08,,,0.36,VWS V14.01,2013-05-06 08:28:00,
2013-05-06 04:33:00,52.8,51.7,29.69,NE,38,0.0,2.0,96,0.07,,,0.36,VWS V14.01,2013-05-06 08:33:00,
2013-05-06 04:38:00,52.8,51.7,29.69,NW,312,4.0,4.0,96,0.06,,,0.36,VWS V14.01,2013-05-06 08:38:00,
2013-05-06 04:43:00,52.8,51.7,29.69,NNE,13,0.0,2.0,96,0.06,,,0.36,VWS V14.01,2013-05-06 08:43:00,
2013-05-06 04:48:00,52.8,51.7,29.70,WNW,300,0.0,2.0,96,0.04,,,0.36,VWS V14.01,2013-05-06 08:48:00,
2013-05-06 04:53:00,52.9,51.8,29.70,WSW,254,0.0,2.0,96,0.03,,,0.36,VWS V14.01,2013-05-06 08:53:00,
2013-05-06 04:59:00,52.9,51.8,29.70,WSW,255,3.0,3.0,96,0.03,,,0.36,VWS V14.01,2013-05-06 08:59:00,
2013-05-06 05:04:00,52.8,51.7,29.71,WSW,255,0.0,2.0,96,0.02,,,0.36,VWS V14.01,2013-05-06 09:04:00,
2013-05-06 05:09:00,52.8,51.7,29.71,WSW,255,0.0,2.0,96,0.02,,,0.36,VWS V14.01,2013-05-06 09:09:00,
2013-05-06 05:14:00,52.8,51.7,29.71,WSW,255,0.0,2.0,96,0.02,,,0.37,VWS V14.01,2013-05-06 09:14:00,
2013-05-06 05:19:00,52.8,51.7,29.71,WSW,257,5.0,5.0,96,0.02,,,0.38,VWS V14.01,2013-05-06 09:19:00,
2013-05-06 05:24:00,52.8,51.7,29.71,WSW,257,0.0,2.0,96,0.03,,,0.39,VWS V14.01,2013-05-06 09:24:00,
2013-05-06 05:29:00,52.6,51.5,29.71,WSW,255,1.0,2.0,96,0.04,,,0.40,VWS V14.01,2013-05-06 09:29:00,
2013-05-06 05:34:00,52.6,51.5,29.72,West,279,1.0,2.0,96,0.05,,,0.41,VWS V14.01,2013-05-06 09:34:00,
2013-05-06 05:39:00,52.6,51.5,29.72,West,279,1.0,2.0,96,0.06,,,0.42,VWS V14.01,2013-05-06 09:39:00,
2013-05-06 05:44:00,52.5,51.4,29.72,West,261,2.0,2.0,96,0.07,,,0.43,VWS V14.01,2013-05-06 09:44:00,
2013-05-06 05:49:00,52.5,51.4,29.72,West,261,1.0,2.0,96,0.08,,,0.44,VWS V14.01,2013-05-06 09:49:00,
2013-05-06 05:54:00,52.3,51.2,29.72,West,264,1.0,2.0,96,0.08,,,0.44,VWS V14.01,2013-05-06 09:54:00,
2013-05-06 05:59:00,52.3,51.2,29.72,West,264,0.0,2.0,96,0.09,,,0.45,VWS V14.01,2013-05-06 09:59:00,
2013-05-06 06:04:00,52.3,51.2,29.72,West,264,0.0,2.0,96,0.10,,,0.46,VWS V14.01,2013-05-06 10:04:00,
2013-05-06 06:09:00,52.3,51.2,29.72,West,264,0.0,2.0,96,0.10,,,0.46,VWS V14.01,2013-05-06 10:09:00,
2013-05-06 06:14:00,52.3,51.2,29.72,West,264,0.0,2.0,96,0.11,,,0.47,VWS V14.01,2013-05-06 10:14:00,
2013-05-06 06:19:00,52.3,51.2,29.73,West,264,0.0,2.0,96,0.10,,,0.47,VWS V14.01,2013-05-06 10:19:00,
2013-05-06 06:24:00,52.3,51.2,29.73,West,264,0.0,2.0,96,0.10,,,0.48,VWS V14.01,2013-05-06 10:24:00,
2013-05-06 06:29:00,52.3,51.2,29.73,West,264,0.0,2.0,96,0.09,,,0.48,VWS V14.01,2013-05-06 10:29:00,
2013-05-06 06:34:00,52.3,51.2,29.74,West,264,0.0,2.0,96,0.09,,,0.49,VWS V14.01,2013-05-06 10:34:00,
2013-05-06 06:39:00,52.3,51.2,29.74,West,264,0.0,2.0,96,0.08,,,0.49,VWS V14.01,2013-05-06 10:39:00,
2013-05-06 06:45:00,52.5,51.4,29.74,West,264,0.0,2.0,96,0.08,,,0.50,VWS V14.01,2013-05-06 10:45:00,
2013-05-06 06:50:00,52.5,51.4,29.73,West,264,0.0,2.0,96,0.06,,,0.50,VWS V14.01,2013-05-06 10:50:00,
2013-05-06 06:55:00,52.3,51.2,29.73,West,264,0.0,2.0,96,0.06,,,0.50,VWS V14.01,2013-05-06 10:55:00,
2013-05-06 07:00:00,52.3,51.2,29.73,West,264,0.0,2.0,96,0.05,,,0.50,VWS V14.01,2013-05-06 11:00:00,
2013-05-06 07:05:00,52.3,51.2,29.73,West,264,0.0,2.0,96,0.05,,,0.50,VWS V14.01,2013-05-06 11:05:00,
2013-05-06 07:10:00,52.3,51.2,29.73,West,264,0.0,2.0,96,0.04,,,0.50,VWS V14.01,2013-05-06 11:10:00,
2013-05-06 07:15:00,52.3,51.2,29.73,West,264,0.0,2.0,96,0.03,,,0.50,VWS V14.01,2013-05-06 11:15:00,
2013-05-06 07:20:00,52.3,51.2,29.75,West,264,0.0,2.0,96,0.03,,,0.50,VWS V14.01,2013-05-06 11:20:00,
2013-05-06 07:25:00,52.3,51.2,29.75,West,264,0.0,2.0,96,0.03,,,0.50,VWS V14.01,2013-05-06 11:25:00,
2013-05-06 07:30:00,52.5,51.4,29.75,West,264,0.0,2.0,96,0.02,,,0.50,VWS V14.01,2013-05-06 11:30:00,
2013-05-06 07:35:00,52.5,51.4,29.75,West,264,0.0,2.0,96,0.02,,,0.50,VWS V14.01,2013-05-06 11:35:00,
2013-05-06 07:40:00,52.6,51.5,29.75,SE,131,0.0,2.0,96,0.01,,,0.50,VWS V14.01,2013-05-06 11:40:00,
2013-05-06 07:45:00,52.6,51.5,29.75,North,355,0.0,2.0,96,0.01,,,0.50,VWS V14.01,2013-05-06 11:45:00,
2013-05-06 07:50:00,52.6,51.5,29.75,NNW,339,0.0,2.0,96,0.00,,,0.50,VWS V14.01,2013-05-06 11:50:00,
2013-05-06 07:55:00,52.8,51.7,29.75,NNE,21,0.0,2.0,96,0.00,,,0.50,VWS V14.01,2013-05-06 11:55:00,
2013-05-06 08:00:00,52.8,51.7,29.75,NNW,347,0.0,2.0,96,0.01,,,0.51,VWS V14.01,2013-05-06 12:00:00,
2013-05-06 08:05:00,52.9,51.8,29.75,NNE,18,3.0,3.0,96,0.01,,,0.51,VWS V14.01,2013-05-06 12:05:00,
2013-05-06 08:10:00,52.8,51.7,29.75,NNE,24,0.0,2.0,96,0.01,,,0.51,VWS V14.01,2013-05-06 12:10:00,
2013-05-06 08:15:00,52.8,51.7,29.75,NNE,24,0.0,2.0,96,0.01,,,0.51,VWS V14.01,2013-05-06 12:15:00,
2013-05-06 08:20:00,52.9,51.8,29.75,NNE,24,0.0,2.0,96,0.01,,,0.51,VWS V14.01,2013-05-06 12:20:00,
2013-05-06 08:26:00,53.1,52.0,29.75,North,5,0.0,2.0,96,0.01,,,0.51,VWS V14.01,2013-05-06 12:26:00,
2013-05-06 08:31:00,53.2,52.1,29.75,North,5,0.0,2.0,96,0.01,,,0.51,VWS V14.01,2013-05-06 12:31:00,
2013-05-06 08:36:00,53.3,52.2,29.75,North,5,0.0,2.0,96,0.01,,,0.51,VWS V14.01,2013-05-06 12:36:00,
2013-05-06 08:41:00,53.2,52.1,29.75,North,355,0.0,2.0,96,0.01,,,0.51,VWS V14.01,2013-05-06 12:41:00,
2013-05-06 08:46:00,53.2,52.1,29.76,North,355,0.0,2.0,96,0.01,,,0.51,VWS V14.01,2013-05-06 12:46:00,
2013-05-06 08:51:00,53.2,52.1,29.76,NNW,335,1.0,2.0,96,0.01,,,0.51,VWS V14.01,2013-05-06 12:51:00,
2013-05-06 08:56:00,53.2,52.1,29.76,WNW,300,0.0,2.0,96,0.00,,,0.51,VWS V14.01,2013-05-06 12:56:00,
2013-05-06 09:01:00,53.3,52.2,29.76,SSW,202,0.0,2.0,96,0.00,,,0.51,VWS V14.01,2013-05-06 13:01:00,
2013-05-06 09:06:00,53.2,52.1,29.76,WSW,257,0.0,2.0,96,0.00,,,0.51,VWS V14.01,2013-05-06 13:06:00,
2013-05-06 09:11:00,53.3,52.2,29.76,WSW,257,0.0,2.0,96,0.00,,,0.51,VWS V14.01,2013-05-06 13:11:00,
2013-05-06 09:16:00,53.6,52.5,29.76,WSW,257,0.0,2.0,96,0.00,,,0.51,VWS V14.01,2013-05-06 13:16:00,
2013-05-06 09:21:00,53.9,52.8,29.76,NW,325,0.0,2.0,96,0.00,,,0.51,VWS V14.01,2013-05-06 13:21:00,
2013-05-06 09:26:00,54.1,53.0,29.76,NW,325,0.0,2.0,96,0.00,,,0.51,VWS V14.01,2013-05-06 13:26:00,
2013-05-06 09:31:00,54.1,53.0,29.76,NW,325,0.0,2.0,96,0.00,,,0.51,VWS V14.01,2013-05-06 13:31:00,
2013-05-06 09:37:00,54.2,53.1,29.76,NW,325,0.0,2.0,96,0.00,,,0.51,VWS V14.01,2013-05-06 13:37:00,
2013-05-06 09:42:00,54.2,53.1,29.76,WNW,301,4.0,4.0,96,0.00,,,0.51,VWS V14.01,2013-05-06 13:42:00,
2013-05-06 09:47:00,54.2,53.1,29.76,NW,321,3.0,3.0,96,0.00,,,0.51,VWS V14.01,2013-05-06 13:47:00,
2013-05-06 09:52:00,54.5,53.4,29.76,NW,321,1.0,2.0,96,0.00,,,0.51,VWS V14.01,2013-05-06 13:52:00,
2013-05-06 09:57:00,55.0,53.9,29.76,NW,321,0.0,2.0,96,0.00,,,0.51,VWS V14.01,2013-05-06 13:57:00,
2013-05-06 10:02:00,55.1,54.0,29.76,ENE,67,0.0,2.0,96,0.00,,,0.51,VWS V14.01,2013-05-06 14:02:00,
2013-05-06 10:07:00,55.1,54.0,29.76,NNE,21,0.0,2.0,96,0.00,,,0.51,VWS V14.01,2013-05-06 14:07:00,
2013-05-06 10:12:00,55.4,54.3,29.76,NNE,15,0.0,2.0,96,0.00,,,0.51,VWS V14.01,2013-05-06 14:12:00,
2013-05-06 10:17:00,55.7,54.6,29.76,NNE,15,0.0,2.0,96,0.00,,,0.51,VWS V14.01,2013-05-06 14:17:00,
2013-05-06 10:22:00,55.7,54.6,29.76,West,271,0.0,2.0,96,0.00,,,0.51,VWS V14.01,2013-05-06 14:22:00,
2013-05-06 10:27:00,56.2,55.1,29.76,West,271,2.0,2.0,96,0.00,,,0.51,VWS V14.01,2013-05-06 14:27:00,
2013-05-06 10:32:00,56.5,55.4,29.76,NW,313,0.0,2.0,96,0.00,,,0.51,VWS V14.01,2013-05-06 14:32:00,
2013-05-06 10:37:00,56.6,55.2,29.76,NW,315,2.0,2.0,95,0.00,,,0.51,VWS V14.01,2013-05-06 14:37:00,
2013-05-06 10:42:00,56.7,55.3,29.76,NW,317,0.0,2.0,95,0.00,,,0.51,VWS V14.01,2013-05-06 14:42:00,
2013-05-06 10:47:00,57.0,55.3,29.76,NW,317,0.0,2.0,94,0.00,,,0.51,VWS V14.01,2013-05-06 14:47:00,
2013-05-06 10:52:00,57.3,55.3,29.76,West,268,2.0,2.0,93,0.00,,,0.51,VWS V14.01,2013-05-06 14:52:00,
2013-05-06 10:57:00,57.3,54.7,29.76,NW,318,3.0,3.0,91,0.00,,,0.51,VWS V14.01,2013-05-06 14:57:00,
2013-05-06 11:03:00,57.6,55.0,29.76,NW,311,1.0,2.0,91,0.00,,,0.51,VWS V14.01,2013-05-06 15:03:00,
2013-05-06 11:08:00,58.1,55.5,29.76,NW,314,0.0,2.0,91,0.00,,,0.51,VWS V14.01,2013-05-06 15:08:00,
2013-05-06 11:13:00,58.6,56.0,29.76,NW,314,0.0,2.0,91,0.00,,,0.51,VWS V14.01,2013-05-06 15:13:00,
2013-05-06 11:18:00,58.7,55.5,29.75,WNW,300,0.0,2.0,89,0.00,,,0.51,VWS V14.01,2013-05-06 15:18:00,
2013-05-06 11:23:00,59.0,55.8,29.75,WNW,300,0.0,2.0,89,0.00,,,0.51,VWS V14.01,2013-05-06 15:23:00,
2013-05-06 11:28:00,59.2,55.3,29.75,WNW,300,0.0,2.0,87,0.00,,,0.51,VWS V14.01,2013-05-06 15:28:00,
2013-05-06 11:33:00,59.3,53.8,29.76,NNE,15,0.0,2.0,82,0.00,,,0.51,VWS V14.01,2013-05-06 15:33:00,
2013-05-06 11:38:00,59.8,55.3,29.76,NNE,15,0.0,2.0,85,0.00,,,0.51,VWS V14.01,2013-05-06 15:38:00,
2013-05-06 11:43:00,59.9,54.1,29.76,West,273,0.0,2.0,81,0.00,,,0.51,VWS V14.01,2013-05-06 15:43:00,
2013-05-06 11:48:00,60.7,55.8,29.75,West,273,0.0,2.0,84,0.00,,,0.51,VWS V14.01,2013-05-06 15:48:00,
2013-05-06 11:53:00,61.0,53.8,29.75,NW,321,0.0,2.0,77,0.00,,,0.51,VWS V14.01,2013-05-06 15:53:00,
2013-05-06 11:58:00,61.6,54.7,29.75,NW,309,3.0,3.0,78,0.00,,,0.51,VWS V14.01,2013-05-06 15:58:00,
2013-05-06 12:03:00,61.8,55.9,29.75,NW,316,0.0,2.0,81,0.00,,,0.51,VWS V14.01,2013-05-06 16:03:00,
2013-05-06 12:08:00,61.8,52.3,29.75,West,272,0.0,2.0,71,0.00,,,0.51,VWS V14.01,2013-05-06 16:08:00,
2013-05-06 12:13:00,61.8,53.1,29.75,West,271,3.0,3.0,73,0.00,,,0.51,VWS V14.01,2013-05-06 16:13:00,
2013-05-06 12:18:00,62.6,53.1,29.73,NE,53,1.0,2.0,71,0.00,,,0.51,VWS V14.01,2013-05-06 16:18:00,
2013-05-06 12:23:00,62.7,52.8,29.73,NE,44,0.0,2.0,70,0.00,,,0.51,VWS V14.01,2013-05-06 16:23:00,
2013-05-06 12:29:00,64.0,53.6,29.73,WNW,290,1.0,2.0,69,0.00,,,0.51,VWS V14.01,2013-05-06 16:29:00,
2013-05-06 12:34:00,65.8,53.7,29.72,WNW,290,2.0,2.0,65,0.00,,,0.51,VWS V14.01,2013-05-06 16:34:00,
2013-05-06 12:39:00,66.8,52.0,29.72,NE,48,0.0,2.0,59,0.00,,,0.51,VWS V14.01,2013-05-06 16:39:00,
2013-05-06 12:44:00,66.9,53.5,29.72,NE,45,0.0,2.0,62,0.00,,,0.51,VWS V14.01,2013-05-06 16:44:00,
2013-05-06 12:49:00,66.6,54.1,29.72,WNW,296,2.0,2.0,64,0.00,,,0.51,VWS V14.01,2013-05-06 16:49:00,
2013-05-06 12:54:00,66.1,51.8,29.72,West,279,0.0,2.0,60,0.00,,,0.51,VWS V14.01,2013-05-06 16:54:00,
2013-05-06 12:59:00,65.8,52.9,29.72,West,279,0.0,2.0,63,0.00,,,0.51,VWS V14.01,2013-05-06 16:59:00,
2013-05-06 13:04:00,65.8,52.9,29.71,West,279,2.0,2.0,63,0.00,,,0.51,VWS V14.01,2013-05-06 17:04:00,
2013-05-06 13:09:00,65.5,49.9,29.71,NW,309,0.0,2.0,57,0.00,,,0.51,VWS V14.01,2013-05-06 17:09:00,
2013-05-06 13:14:00,65.5,48.4,29.71,NNW,327,0.0,2.0,54,0.00,,,0.51,VWS V14.01,2013-05-06 17:14:00,
2013-05-06 13:19:00,65.5,49.9,29.71,North,360,2.0,2.0,57,0.00,,,0.51,VWS V14.01,2013-05-06 17:19:00,
2013-05-06 13:24:00,65.8,46.1,29.71,SSE,165,2.0,2.0,49,0.00,,,0.51,VWS V14.01,2013-05-06 17:24:00,
2013-05-06 13:29:00,66.6,45.8,29.71,West,271,2.0,2.0,47,0.00,,,0.51,VWS V14.01,2013-05-06 17:29:00,
2013-05-06 13:35:00,67.6,47.2,29.71,WNW,292,1.0,2.0,48,0.00,,,0.51,VWS V14.01,2013-05-06 17:35:00,
2013-05-06 13:40:00,67.6,46.1,29.71,NNW,334,3.0,3.0,46,0.00,,,0.51,VWS V14.01,2013-05-06 17:40:00,
2013-05-06 13:45:00,67.3,46.4,29.71,NW,320,3.0,3.0,47,0.00,,,0.51,VWS V14.01,2013-05-06 17:45:00,
2013-05-06 13:50:00,66.9,46.0,29.71,NNW,327,3.0,3.0,47,0.00,,,0.51,VWS V14.01,2013-05-06 17:50:00,
2013-05-06 13:55:00,66.4,45.6,29.71,NNW,344,2.0,2.0,47,0.00,,,0.51,VWS V14.01,2013-05-06 17:55:00,
2013-05-06 14:00:00,66.4,46.7,29.71,WNW,294,1.0,2.0,49,0.00,,,0.51,VWS V14.01,2013-05-06 18:00:00,
2013-05-06 14:05:00,66.4,46.1,29.71,WNW,287,5.0,5.0,48,0.00,,,0.51,VWS V14.01,2013-05-06 18:05:00,
2013-05-06 14:10:00,66.8,47.6,29.71,SW,236,9.0,9.0,50,0.00,,,0.51,VWS V14.01,2013-05-06 18:10:00,
2013-05-06 14:15:00,67.1,45.7,29.71,NW,323,3.0,3.0,46,0.00,,,0.51,VWS V14.01,2013-05-06 18:15:00,
2013-05-06 14:20:00,67.4,44.8,29.71,WSW,246,0.0,2.0,44,0.00,,,0.51,VWS V14.01,2013-05-06 18:20:00,
2013-05-06 14:25:00,67.4,44.2,29.71,West,278,0.0,2.0,43,0.00,,,0.51,VWS V14.01,2013-05-06 18:25:00,
2013-05-06 14:30:00,67.6,44.9,29.70,WNW,282,5.0,5.0,44,0.00,,,0.51,VWS V14.01,2013-05-06 18:30:00,
2013-05-06 14:35:00,67.9,45.2,29.70,West,276,0.0,2.0,44,0.00,,,0.51,VWS V14.01,2013-05-06 18:35:00,
2013-05-06 14:40:00,68.6,46.4,29.70,WNW,297,3.0,3.0,45,0.00,,,0.51,VWS V14.01,2013-05-06 18:40:00,
2013-05-06 14:46:00,68.8,46.0,29.70,NW,315,3.0,3.0,44,0.00,,,0.51,VWS V14.01,2013-05-06 18:46:00,
2013-05-06 14:51:00,68.8,47.2,29.70,NW,324,3.0,3.0,46,0.00,,,0.51,VWS V14.01,2013-05-06 18:51:00,
2013-05-06 14:56:00,69.1,46.9,29.70,WNW,288,5.0,5.0,45,0.00,,,0.51,VWS V14.01,2013-05-06 18:56:00,
2013-05-06 15:01:00,69.3,45.2,29.70,SW,232,2.0,2.0,42,0.00,,,0.51,VWS V14.01,2013-05-06 19:01:00,
2013-05-06 15:06:00,69.8,45.7,29.70,West,262,1.0,2.0,42,0.00,,,0.51,VWS V14.01,2013-05-06 19:06:00,
2013-05-06 15:11:00,70.3,46.8,29.70,South,172,0.0,2.0,43,0.00,,,0.51,VWS V14.01,2013-05-06 19:11:00,
2013-05-06 15:16:00,70.6,44.5,29.69,WSW,257,1.0,2.0,39,0.00,,,0.51,VWS V14.01,2013-05-06 19:16:00,
2013-05-06 15:21:00,70.1,49.5,29.69,NE,51,0.0,2.0,48,0.00,,,0.51,VWS V14.01,2013-05-06 19:21:00,
2013-05-06 15:26:00,70.1,45.3,29.69,ENE,69,0.0,2.0,41,0.00,,,0.51,VWS V14.01,2013-05-06 19:26:00,
2013-05-06 15:31:00,70.4,45.6,29.68,WSW,253,3.0,3.0,41,0.00,,,0.51,VWS V14.01,2013-05-06 19:31:00,
2013-05-06 15:36:00,71.5,47.2,29.68,North,9,2.0,2.0,42,0.00,,,0.51,VWS V14.01,2013-05-06 19:36:00,
2013-05-06 15:41:00,72.3,43.9,29.68,NW,305,3.0,3.0,36,0.00,,,0.51,VWS V14.01,2013-05-06 19:41:00,
2013-05-06 15:46:00,72.8,45.7,29.67,West,265,0.0,2.0,38,0.00,,,0.51,VWS V14.01,2013-05-06 19:46:00,
2013-05-06 15:51:00,72.0,45.7,29.67,North,9,0.0,2.0,39,0.00,,,0.51,VWS V14.01,2013-05-06 19:51:00,
2013-05-06 15:56:00,71.3,44.4,29.67,NNW,340,1.0,2.0,38,0.00,,,0.51,VWS V14.01,2013-05-06 19:56:00,
2013-05-06 16:01:00,71.1,44.9,29.67,WSW,239,0.0,2.0,39,0.00,,,0.51,VWS V14.01,2013-05-06 20:01:00,
2013-05-06 16:07:00,71.6,44.0,29.67,WSW,244,2.0,2.0,37,0.00,,,0.51,VWS V14.01,2013-05-06 20:07:00,
2013-05-06 16:12:00,71.5,43.9,29.67,WSW,243,0.0,2.0,37,0.00,,,0.51,VWS V14.01,2013-05-06 20:12:00,
2013-05-06 16:17:00,71.6,44.0,29.67,WSW,258,1.0,2.0,37,0.00,,,0.51,VWS V14.01,2013-05-06 20:17:00,
2013-05-06 16:22:00,71.6,43.3,29.67,West,273,2.0,2.0,36,0.00,,,0.51,VWS V14.01,2013-05-06 20:22:00,
2013-05-06 16:27:00,72.0,43.6,29.67,WSW,254,1.0,2.0,36,0.00,,,0.51,VWS V14.01,2013-05-06 20:27:00,
2013-05-06 16:32:00,71.6,46.0,29.67,NW,321,0.0,2.0,40,0.00,,,0.51,VWS V14.01,2013-05-06 20:32:00,
2013-05-06 16:37:00,71.6,45.4,29.67,West,269,4.0,4.0,39,0.00,,,0.51,VWS V14.01,2013-05-06 20:37:00,
2013-05-06 16:42:00,71.1,45.6,29.67,WNW,294,0.0,2.0,40,0.00,,,0.51,VWS V14.01,2013-05-06 20:42:00,
2013-05-06 16:47:00,70.9,45.4,29.67,West,271,0.0,2.0,40,0.00,,,0.51,VWS V14.01,2013-05-06 20:47:00,
2013-05-06 16:52:00,70.6,43.1,29.67,NW,320,2.0,2.0,37,0.00,,,0.51,VWS V14.01,2013-05-06 20:52:00,
2013-05-06 16:57:00,69.8,43.1,29.67,SSW,201,0.0,2.0,38,0.00,,,0.51,VWS V14.01,2013-05-06 20:57:00,
2013-05-06 17:02:00,68.8,42.9,29.67,West,278,1.0,2.0,39,0.00,,,0.51,VWS V14.01,2013-05-06 21:02:00,
2013-05-06 17:07:00,67.9,42.7,29.67,SW,232,1.0,2.0,40,0.00,,,0.51,VWS V14.01,2013-05-06 21:07:00,
2013-05-06 17:12:00,67.6,43.1,29.67,NW,311,0.0,2.0,41,0.00,,,0.51,VWS V14.01,2013-05-06 21:12:00,
2013-05-06 17:17:00,67.8,43.9,29.68,SSW,211,1.0,2.0,42,0.00,,,0.51,VWS V14.01,2013-05-06 21:17:00,
2013-05-06 17:22:00,67.9,43.4,29.68,SSW,211,0.0,2.0,41,0.00,,,0.51,VWS V14.01,2013-05-06 21:22:00,
2013-05-06 17:27:00,68.1,44.8,29.68,NNW,339,0.0,2.0,43,0.00,,,0.51,VWS V14.01,2013-05-06 21:27:00,
2013-05-06 17:32:00,67.8,43.9,29.68,West,280,3.0,3.0,42,0.00,,,0.51,VWS V14.01,2013-05-06 21:32:00,
2013-05-06 17:37:00,67.3,44.7,29.68,West,280,0.0,2.0,44,0.00,,,0.51,VWS V14.01,2013-05-06 21:37:00,
2013-05-06 17:43:00,66.9,44.3,29.68,West,280,1.0,2.0,44,0.00,,,0.51,VWS V14.01,2013-05-06 21:43:00,
2013-05-06 17:48:00,66.4,44.4,29.68,West,279,2.0,2.0,45,0.00,,,0.51,VWS V14.01,2013-05-06 21:48:00,
2013-05-06 17:53:00,65.6,43.7,29.68,West,264,0.0,2.0,45,0.00,,,0.51,VWS V14.01,2013-05-06 21:53:00,
2013-05-06 17:58:00,65.2,45.6,29.68,West,264,0.0,2.0,49,0.00,,,0.51,VWS V14.01,2013-05-06 21:58:00,
2013-05-06 18:03:00,64.8,46.8,29.68,West,264,0.0,2.0,52,0.00,,,0.51,VWS V14.01,2013-05-06 22:03:00,
2013-05-06 18:08:00,64.8,47.3,29.68,West,264,0.0,2.0,53,0.00,,,0.51,VWS V14.01,2013-05-06 22:08:00,
2013-05-06 18:13:00,64.7,47.7,29.68,West,264,1.0,2.0,54,0.00,,,0.51,VWS V14.01,2013-05-06 22:13:00,
2013-05-06 18:18:00,64.5,49.0,29.68,West,264,2.0,2.0,57,0.00,,,0.51,VWS V14.01,2013-05-06 22:18:00,
2013-05-06 18:23:00,63.9,49.8,29.68,West,264,0.0,2.0,60,0.00,,,0.51,VWS V14.01,2013-05-06 22:23:00,
2013-05-06 18:28:00,63.5,50.3,29.68,NW,323,0.0,2.0,62,0.00,,,0.51,VWS V14.01,2013-05-06 22:28:00,
2013-05-06 18:33:00,62.7,48.6,29.69,NW,323,0.0,2.0,60,0.00,,,0.51,VWS V14.01,2013-05-06 22:33:00,
2013-05-06 18:38:00,62.0,48.0,29.69,NW,324,0.0,2.0,60,0.00,,,0.51,VWS V14.01,2013-05-06 22:38:00,
2013-05-06 18:43:00,62.0,50.9,29.69,NW,323,0.0,2.0,67,0.00,,,0.51,VWS V14.01,2013-05-06 22:43:00,
2013-05-06 18:48:00,61.8,49.5,29.70,NW,323,0.0,2.0,64,0.00,,,0.51,VWS V14.01,2013-05-06 22:48:00,
2013-05-06 18:53:00,61.6,49.3,29.70,WSW,238,0.0,2.0,64,0.00,,,0.51,VWS V14.01,2013-05-06 22:53:00,
2013-05-06 18:58:00,61.3,49.9,29.70,SW,221,3.0,3.0,66,0.00,,,0.51,VWS V14.01,2013-05-06 22:58:00,
2013-05-06 19:03:00,61.2,49.8,29.71,WSW,250,0.0,2.0,66,0.00,,,0.51,VWS V14.01,2013-05-06 23:03:00,
2013-05-06 19:08:00,60.7,49.7,29.71,SSW,211,0.0,2.0,67,0.00,,,0.51,VWS V14.01,2013-05-06 23:08:00,
2013-05-06 19:13:00,60.2,49.6,29.71,SW,228,0.0,2.0,68,0.00,,,0.51,VWS V14.01,2013-05-06 23:13:00,
2013-05-06 19:18:00,59.8,49.6,29.71,WSW,248,0.0,2.0,69,0.00,,,0.51,VWS V14.01,2013-05-06 23:18:00,
2013-05-06 19:23:00,59.5,49.3,29.71,SE,127,4.0,4.0,69,0.00,,,0.51,VWS V14.01,2013-05-06 23:23:00,
2013-05-06 19:29:00,59.2,49.0,29.71,WNW,289,3.0,3.0,69,0.00,,,0.51,VWS V14.01,2013-05-06 23:29:00,
2013-05-06 19:34:00,59.0,49.6,29.72,NNW,331,1.0,2.0,71,0.00,,,0.51,VWS V14.01,2013-05-06 23:34:00,
2013-05-06 19:39:00,58.7,49.3,29.72,South,188,1.0,2.0,71,0.00,,,0.51,VWS V14.01,2013-05-06 23:39:00,
2013-05-06 19:44:00,58.6,50.0,29.72,WSW,247,0.0,2.0,73,0.00,,,0.51,VWS V14.01,2013-05-06 23:44:00,
2013-05-06 19:49:00,58.3,49.7,29.73,SW,232,1.0,2.0,73,0.00,,,0.51,VWS V14.01,2013-05-06 23:49:00,
2013-05-06 19:54:00,58.1,49.5,29.73,West,266,2.0,2.0,73,0.00,,,0.51,VWS V14.01,2013-05-06 23:54:00,
2013-05-06 19:59:00,58.0,49.4,29.73,SSW,212,0.0,2.0,73,0.00,,,0.51,VWS V14.01,2013-05-06 23:59:00,
2013-05-06 20:04:00,57.8,49.2,29.74,WSW,240,0.0,2.0,73,0.00,,,0.51,VWS V14.01,2013-05-07 00:04:00,
2013-05-06 20:09:00,57.5,48.9,29.74,WSW,242,0.0,2.0,73,0.00,,,0.51,VWS V14.01,2013-05-07 00:09:00,
2013-05-06 20:14:00,57.3,49.1,29.74,West,267,0.0,2.0,74,0.00,,,0.51,VWS V14.01,2013-05-07 00:14:00,
2013-05-06 20:19:00,57.0,48.8,29.75,SW,236,0.0,2.0,74,0.00,,,0.51,VWS V14.01,2013-05-07 00:19:00,
2013-05-06 20:24:00,57.0,49.2,29.75,NNE,20,1.0,2.0,75,0.00,,,0.51,VWS V14.01,2013-05-07 00:24:00,
2013-05-06 20:29:00,56.9,48.7,29.75,WNW,298,0.0,2.0,74,0.00,,,0.51,VWS V14.01,2013-05-07 00:29:00,
2013-05-06 20:34:00,56.7,48.5,29.76,SSW,208,0.0,2.0,74,0.00,,,0.51,VWS V14.01,2013-05-07 00:34:00,
2013-05-06 20:39:00,56.5,48.7,29.76,SSW,209,0.0,2.0,75,0.00,,,0.51,VWS V14.01,2013-05-07 00:39:00,
2013-05-06 20:44:00,56.2,48.4,29.76,WSW,238,2.0,2.0,75,0.00,,,0.51,VWS V14.01,2013-05-07 00:44:00,
2013-05-06 20:49:00,55.9,48.1,29.77,WSW,248,3.0,3.0,75,0.00,,,0.51,VWS V14.01,2013-05-07 00:49:00,
2013-05-06 20:54:00,55.7,47.9,29.77,SSW,210,0.0,2.0,75,0.00,,,0.51,VWS V14.01,2013-05-07 00:54:00,
2013-05-06 21:00:00,55.4,48.0,29.77,West,267,0.0,2.0,76,0.00,,,0.51,VWS V14.01,2013-05-07 01:00:00,
2013-05-06 21:05:00,55.3,47.9,29.78,WSW,244,0.0,2.0,76,0.00,,,0.51,VWS V14.01,2013-05-07 01:05:00,
2013-05-06 21:10:00,55.0,47.6,29.78,WSW,244,0.0,2.0,76,0.00,,,0.51,VWS V14.01,2013-05-07 01:10:00,
2013-05-06 21:15:00,54.8,47.7,29.78,WSW,241,1.0,2.0,77,0.00,,,0.51,VWS V14.01,2013-05-07 01:15:00,
2013-05-06 21:20:00,54.7,47.6,29.78,WSW,241,0.0,2.0,77,0.00,,,0.51,VWS V14.01,2013-05-07 01:20:00,
2013-05-06 21:25:00,54.5,47.5,29.78,West,277,1.0,2.0,77,0.00,,,0.51,VWS V14.01,2013-05-07 01:25:00,
2013-05-06 21:30:00,54.5,47.5,29.78,West,277,0.0,2.0,77,0.00,,,0.51,VWS V14.01,2013-05-07 01:30:00,
2013-05-06 21:35:00,54.4,47.7,29.80,West,277,0.0,2.0,78,0.00,,,0.51,VWS V14.01,2013-05-07 01:35:00,
2013-05-06 21:40:00,54.2,47.8,29.80,West,277,0.0,2.0,79,0.00,,,0.51,VWS V14.01,2013-05-07 01:40:00,
2013-05-06 21:45:00,54.1,47.4,29.80,WSW,252,1.0,2.0,78,0.00,,,0.51,VWS V14.01,2013-05-07 01:45:00,
2013-05-06 21:50:00,53.8,47.5,29.81,WSW,250,0.0,2.0,79,0.00,,,0.51,VWS V14.01,2013-05-07 01:50:00,
2013-05-06 21:55:00,53.8,47.5,29.81,WSW,250,0.0,2.0,79,0.00,,,0.51,VWS V14.01,2013-05-07 01:55:00,
2013-05-06 22:00:00,53.8,47.5,29.82,WSW,250,0.0,2.0,79,0.00,,,0.51,VWS V14.01,2013-05-07 02:00:00,
2013-05-06 22:05:00,53.8,47.5,29.82,SW,227,1.0,2.0,79,0.00,,,0.51,VWS V14.01,2013-05-07 02:05:00,
2013-05-06 22:10:00,53.8,47.1,29.82,SW,226,0.0,2.0,78,0.00,,,0.51,VWS V14.01,2013-05-07 02:10:00,
2013-05-06 22:15:00,53.6,46.6,29.82,SW,226,0.0,2.0,77,0.00,,,0.51,VWS V14.01,2013-05-07 02:15:00,
2013-05-06 22:20:00,53.6,46.9,29.82,SW,226,0.0,2.0,78,0.00,,,0.51,VWS V14.01,2013-05-07 02:20:00,
2013-05-06 22:25:00,53.6,46.6,29.82,SW,226,0.0,2.0,77,0.00,,,0.51,VWS V14.01,2013-05-07 02:25:00,
2013-05-06 22:30:00,53.5,46.5,29.82,SW,226,0.0,2.0,77,0.00,,,0.51,VWS V14.01,2013-05-07 02:30:00,
2013-05-06 22:35:00,53.5,46.8,29.82,SW,226,0.0,2.0,78,0.00,,,0.51,VWS V14.01,2013-05-07 02:35:00,
2013-05-06 22:41:00,53.3,46.6,29.82,SW,226,0.0,2.0,78,0.00,,,0.51,VWS V14.01,2013-05-07 02:41:00,
2013-05-06 22:46:00,53.3,46.6,29.82,SW,226,0.0,2.0,78,0.00,,,0.51,VWS V14.01,2013-05-07 02:46:00,
2013-05-06 22:51:00,53.3,47.0,29.82,SW,226,0.0,2.0,79,0.00,,,0.51,VWS V14.01,2013-05-07 02:51:00,
2013-05-06 22:56:00,53.1,46.8,29.82,SW,226,0.0,2.0,79,0.00,,,0.51,VWS V14.01,2013-05-07 02:56:00,
2013-05-06 23:01:00,52.8,46.8,29.82,SW,226,0.0,2.0,80,0.00,,,0.51,VWS V14.01,2013-05-07 03:01:00,
2013-05-06 23:06:00,52.6,46.9,29.82,SW,226,0.0,2.0,81,0.00,,,0.51,VWS V14.01,2013-05-07 03:06:00,
2013-05-06 23:11:00,52.3,46.3,29.82,SW,226,0.0,2.0,80,0.00,,,0.51,VWS V14.01,2013-05-07 03:11:00,
2013-05-06 23:16:00,52.3,46.3,29.81,SW,226,0.0,2.0,80,0.00,,,0.51,VWS V14.01,2013-05-07 03:16:00,
2013-05-06 23:21:00,52.2,46.2,29.81,SW,226,0.0,2.0,80,0.00,,,0.51,VWS V14.01,2013-05-07 03:21:00,
2013-05-06 23:26:00,52.2,45.6,29.81,SW,226,0.0,2.0,78,0.00,,,0.51,VWS V14.01,2013-05-07 03:26:00,
2013-05-06 23:31:00,52.0,45.7,29.81,SW,226,0.0,2.0,79,0.00,,,0.51,VWS V14.01,2013-05-07 03:31:00,
2013-05-06 23:36:00,52.0,45.4,29.81,SW,226,0.0,2.0,78,0.00,,,0.51,VWS V14.01,2013-05-07 03:36:00,
2013-05-06 23:41:00,51.9,45.6,29.81,SW,226,0.0,2.0,79,0.00,,,0.51,VWS V14.01,2013-05-07 03:41:00,
2013-05-06 23:46:00,51.6,45.6,29.81,SW,226,0.0,2.0,80,0.00,,,0.51,VWS V14.01,2013-05-07 03:46:00,
2013-05-06 23:51:00,51.1,45.8,29.81,SW,226,0.0,2.0,82,0.00,,,0.51,VWS V14.01,2013-05-07 03:51:00,
2013-05-06 23:56:00,51.0,46.3,29.81,SW,226,0.0,2.0,84,0.00,,,0.51,VWS V14.01,2013-05-07 03:56:00,